Regional Weather Roundup
Issued by NWS Binghamton, NY

Home | Current Version | Previous Version | Text Only | Print | Product List | Glossary On
Versions: 1 2 3 4 5 6 7 8 9 10 11 12 13 14 15 16 17 18 19 20 21 22 23 24 25 26 27 28 29 30 31 32 33 34 35 36 37 38 39 40 41 42 43 44 45 46 47 48 49 50
000
ASUS41 KBGM 190010
RWRBGM
RWRBGM
BINGHAMTON REGIONAL WEATHER ROUNDUP
NATIONAL WEATHER SERVICE BINGHAMTON NY
800 PM EDT SAT APR 18 2015

Note: "fair" indicates few or no clouds below 12,000 feet with no
significant weather and/or obstructions to visibility.

* = Station(s) that does not report precipitation, such as rain,
snow, etc, also no thunder or fog.

!NYZ009-015>018-022>025-036-037-044>046-055>057-062-190100
...CENTRAL NEW YORK...

CITY           SKY/WX    TMP DP  RH WIND       PRES   REMARKS
BINGHAMTON     CLEAR     56  26  31 N7        30.09R
CORTLAND       FAIR      55  28  35 NW5       30.11R
DANSVILLE      CLEAR     59  29  31 NW8       30.12R
ELMIRA         CLEAR     59  28  30 NE10      30.09R
ITHACA         CLEAR     55  28  35 NW8       30.11R
MONTICELLO     CLEAR     61  21  21 NW14G26   30.03R
PENN YAN       CLEAR     58  26  29 N6        30.11R
ROME           CLEAR     57  17  21 NW14      30.09R
SYRACUSE       PTCLDY    56  22  26 N12       30.09R
$$

!PAZ038>040-043-044-047-048-072-190100
...NORTHEAST PENNSYLVANIA...

CITY           SKY/WX    TMP DP  RH WIND       PRES   REMARKS
HAZLETON       PTCLDY    68  36  30 N8G23     30.03R
SCRANTON       CLEAR     65  34  31 N16       30.01R
TOWANDA*       CLEAR     63  27  25 NE14G20   30.07R
$$
&&
KEY
WCI = WIND CHILL INDEX
VSB = VISIBILITY
HX  = HEAT INDEX
$$


USA.gov is the U.S. government's official web portal to all federal, state and local government web resources and services.